Beaufort MCAS, SC

11:15 PM EST on December 17, 2017 (GMT -0500)
Beaufort Marine Corps Air Station

Weather History for KNBC - June, 2013

Change the Weather History Date:

Saturday, June 15, 2013

  Actual Average Record
Temperature  
Mean Temperature 76 °F -  
Max Temperature 84 °F 87 °F 99 °F (1964)
Min Temperature 68 °F 70 °F 56 °F (1933)
Cooling Degree Days 11    
Growing Degree Days 26 (Base 50)    
Moisture  
Dew Point 64 °F    
Average Humidity 66    
Maximum Humidity 90    
Minimum Humidity 46    
Precipitation  
Precipitation 0.00 in - - ()
Sea Level Pressure  
Sea Level Pressure 30.09 in    
Wind  
Wind Speed 4 mph (ESE)    
Max Wind Speed 12 mph    
Max Gust Speed 20 mph    
Visibility 10 miles    
Events      
Averages and records for this station are not official NWS values.
T = Trace of Precipitation, MM = Missing Value Source: NWS Daily Summary

Daily Weather History Graph

Daily Weather History Graph

Search for Another Location

Airport or City:

Trip Planner

Search our weather history database for the weather conditions in past years. The results will help you decide how hot, cold, wet, or windy it might be!

Date:

Astronomy

Jun. 15, 2013 Rise Set
Actual Time 6:15 AM EDT 8:31 PM EDT
Civil Twilight 5:46 AM EDT 9:00 PM EDT
Nautical Twilight 5:11 AM EDT 9:35 PM EDT
Astronomical Twilight 4:34 AM EDT 10:12 PM EDT
Moon 12:28 PM EDT (6/15) 12:24 AM EDT (6/15)
Length of Visible Light 15h 13m
Length of Day
14h 16m
Waxing Crescent, 39% of the Moon is Illuminated
Jun 15
Waxing Crescent
Jun 16
First Quarter
Jun 23
Full
Jun 30
Last Quarter
Jul 8
New

Hourly Weather History & Observations

Time (EDT) Temp. Heat Index Dew Point Humidity Pressure Visibility Wind Dir Wind Speed Gust Speed Precip Events Conditions
12:56 AM 70.0 °F - 66.0 °F 87% 30.01 in 10.0 mi Calm Calm - N/A   Clear
1:56 AM 70.0 °F - 66.9 °F 90% 30.02 in 10.0 mi North 3.5 mph - N/A   Clear
2:56 AM 71.1 °F - 68.0 °F 90% 30.02 in 10.0 mi Calm Calm - N/A   Clear
3:56 AM 69.1 °F - 66.0 °F 90% 30.02 in 10.0 mi NE 6.9 mph - N/A   Clear
4:56 AM 70.0 °F - 66.0 °F 87% 30.02 in 10.0 mi NE 3.5 mph - N/A   Clear
5:56 AM 68.0 °F - 64.9 °F 90% 30.02 in 10.0 mi NE 9.2 mph - N/A   Clear
6:56 AM 73.0 °F - 66.0 °F 79% 30.06 in 10.0 mi East 3.5 mph - N/A   Clear
7:56 AM 75.0 °F - 68.0 °F 79% 30.08 in 10.0 mi NE 5.8 mph - N/A   Clear
8:56 AM 79.0 °F - 66.9 °F 66% 30.11 in 10.0 mi East 6.9 mph - N/A   Clear
9:56 AM 80.1 °F 81.7 °F 64.0 °F 58% 30.12 in 10.0 mi ESE 10.4 mph - N/A   Scattered Clouds
10:56 AM 80.1 °F 81.5 °F 63.0 °F 56% 30.12 in 10.0 mi ESE 5.8 mph - N/A   Scattered Clouds
11:56 AM 82.9 °F 84.0 °F 63.0 °F 51% 30.13 in 10.0 mi ESE 8.1 mph - N/A   Mostly Cloudy
12:56 PM 82.9 °F 84.0 °F 63.0 °F 51% 30.12 in 10.0 mi SE 6.9 mph 19.6 mph N/A   Scattered Clouds
1:56 PM 84.0 °F 85.4 °F 64.0 °F 51% 30.12 in 10.0 mi SE 9.2 mph 18.4 mph N/A   Partly Cloudy
2:56 PM 84.0 °F 84.5 °F 62.1 °F 47% 30.11 in 10.0 mi SE 11.5 mph - N/A   Clear
3:56 PM 82.9 °F 83.2 °F 60.1 °F 46% 30.11 in 10.0 mi Variable 4.6 mph - N/A   Clear
4:56 PM 84.0 °F 84.4 °F 61.0 °F 46% 30.11 in 10.0 mi South 4.6 mph - N/A   Clear
5:56 PM 82.0 °F 82.4 °F 60.1 °F 47% 30.11 in 10.0 mi SE 10.4 mph - N/A   Clear
6:56 PM 81.0 °F 81.6 °F 60.1 °F 49% 30.11 in 10.0 mi SE 8.1 mph - N/A   Clear
7:56 PM 78.1 °F - 60.1 °F 54% 30.11 in 10.0 mi Calm Calm - N/A   Clear
8:56 PM 75.0 °F - 62.1 °F 64% 30.11 in 10.0 mi SE 4.6 mph - N/A   Clear
9:56 PM 72.0 °F - 61.0 °F 68% 30.12 in 10.0 mi Calm Calm - N/A   Clear
10:56 PM 71.1 °F - 62.1 °F 73% 30.13 in 10.0 mi Calm Calm - N/A   Clear
11:56 PM 72.0 °F - 64.0 °F 76% 30.14 in 10.0 mi Calm Calm - N/A   Clear